Time,TemperatureF,DewpointF,PressureIn,WindDirection,WindDirectionDegrees,WindSpeedMPH,WindSpeedGustMPH,Humidity,HourlyPrecipIn,Conditions,Clouds,dailyrainin,SoftwareType,DateUTC
2015-04-01 00:03:00,47.8,33.2,29.84,ESE,113,0.0,0.0,57,0.00,,,0.00,WUHU216HW,2015-04-01 05:03:00,
2015-04-01 00:08:00,47.8,33.2,29.84,ESE,113,0.0,0.0,57,0.00,,,0.00,WUHU216HW,2015-04-01 05:08:00,
2015-04-01 00:13:00,47.8,33.2,29.84,ESE,113,0.0,0.0,57,0.00,,,0.00,WUHU216HW,2015-04-01 05:13:00,
2015-04-01 00:18:00,47.6,33.1,29.84,ESE,113,0.0,0.0,57,0.00,,,0.00,WUHU216HW,2015-04-01 05:18:00,
2015-04-01 00:23:00,47.4,32.9,29.84,ESE,113,0.0,0.0,57,0.00,,,0.00,WUHU216HW,2015-04-01 05:23:00,
2015-04-01 00:28:00,47.1,32.5,29.84,ESE,113,0.0,0.0,57,0.00,,,0.00,WUHU216HW,2015-04-01 05:28:00,
2015-04-01 00:33:00,47.1,33.0,29.84,ESE,113,0.0,0.0,58,0.00,,,0.00,WUHU216HW,2015-04-01 05:33:00,
2015-04-01 00:38:00,46.9,32.8,29.84,ESE,113,0.0,0.0,58,0.00,,,0.00,WUHU216HW,2015-04-01 05:38:00,
2015-04-01 00:43:00,46.5,32.9,29.84,ESE,113,0.0,0.0,59,0.00,,,0.00,WUHU216HW,2015-04-01 05:43:00,
2015-04-01 00:48:00,46.2,32.6,29.84,ESE,113,0.0,0.0,59,0.00,,,0.00,WUHU216HW,2015-04-01 05:48:00,
2015-04-01 00:53:00,46.0,32.9,29.84,ESE,113,0.0,0.0,60,0.00,,,0.00,WUHU216HW,2015-04-01 05:53:00,
2015-04-01 00:58:00,45.6,32.6,29.84,ESE,113,0.0,0.0,60,0.00,,,0.00,WUHU216HW,2015-04-01 05:58:00,
2015-04-01 01:03:00,45.6,32.6,29.83,ESE,113,0.0,0.0,60,0.00,,,0.00,WUHU216HW,2015-04-01 06:03:00,
2015-04-01 01:08:00,45.3,32.6,29.84,ESE,113,0.0,0.0,61,0.00,,,0.00,WUHU216HW,2015-04-01 06:08:00,
2015-04-01 01:13:00,45.1,32.5,29.84,East,90,0.0,0.0,61,0.00,,,0.00,WUHU216HW,2015-04-01 06:13:00,
2015-04-01 01:18:00,45.3,32.6,29.84,East,90,0.0,0.0,61,0.00,,,0.00,WUHU216HW,2015-04-01 06:18:00,
2015-04-01 01:23:00,45.3,32.6,29.84,SE,135,0.0,0.0,61,0.00,,,0.00,WUHU216HW,2015-04-01 06:23:00,
2015-04-01 01:28:00,45.3,32.6,29.84,ESE,113,0.0,0.0,61,0.00,,,0.00,WUHU216HW,2015-04-01 06:28:00,
2015-04-01 01:33:00,45.6,32.9,29.84,SSE,158,0.0,0.0,61,0.00,,,0.00,WUHU216HW,2015-04-01 06:33:00,
2015-04-01 01:38:00,46.0,33.3,29.84,SE,135,0.0,0.0,61,0.00,,,0.00,WUHU216HW,2015-04-01 06:38:00,
2015-04-01 01:43:00,46.2,33.0,29.84,ESE,113,0.0,0.0,60,0.00,,,0.00,WUHU216HW,2015-04-01 06:43:00,
2015-04-01 01:48:00,46.2,33.0,29.84,ESE,113,0.0,0.0,60,0.00,,,0.00,WUHU216HW,2015-04-01 06:48:00,
2015-04-01 01:53:00,46.2,33.0,29.83,ESE,113,0.0,0.0,60,0.00,,,0.00,WUHU216HW,2015-04-01 06:53:00,
2015-04-01 01:58:00,46.2,33.4,29.84,SE,135,0.0,0.0,61,0.00,,,0.00,WUHU216HW,2015-04-01 06:58:00,
2015-04-01 02:03:00,46.2,33.4,29.83,SE,135,0.0,0.0,61,0.00,,,0.00,WUHU216HW,2015-04-01 07:03:00,
2015-04-01 02:08:00,46.5,33.8,29.84,SSE,158,0.0,0.0,61,0.00,,,0.00,WUHU216HW,2015-04-01 07:08:00,
2015-04-01 02:13:00,46.5,33.8,29.83,SE,135,0.0,0.0,61,0.00,,,0.00,WUHU216HW,2015-04-01 07:13:00,
2015-04-01 02:18:00,46.7,33.9,29.83,SSE,158,0.0,0.0,61,0.00,,,0.00,WUHU216HW,2015-04-01 07:18:00,
2015-04-01 02:23:00,46.5,33.8,29.83,SE,135,0.0,0.0,61,0.00,,,0.00,WUHU216HW,2015-04-01 07:23:00,
2015-04-01 02:28:00,46.5,33.8,29.83,SE,135,0.0,0.0,61,0.00,,,0.00,WUHU216HW,2015-04-01 07:28:00,
2015-04-01 02:33:00,46.5,33.8,29.83,ESE,113,0.0,0.0,61,0.00,,,0.00,WUHU216HW,2015-04-01 07:33:00,
2015-04-01 02:38:00,46.4,33.6,29.82,East,90,0.0,0.0,61,0.00,,,0.00,WUHU216HW,2015-04-01 07:38:00,
2015-04-01 02:43:00,46.2,33.4,29.83,ESE,113,0.0,0.0,61,0.00,,,0.00,WUHU216HW,2015-04-01 07:43:00,
2015-04-01 02:48:00,46.0,33.3,29.83,SE,135,0.0,0.0,61,0.00,,,0.00,WUHU216HW,2015-04-01 07:48:00,
2015-04-01 02:53:00,46.0,33.3,29.82,ESE,113,0.0,0.0,61,0.00,,,0.00,WUHU216HW,2015-04-01 07:53:00,
2015-04-01 02:58:00,46.0,33.7,29.82,SE,135,0.0,0.0,62,0.00,,,0.00,WUHU216HW,2015-04-01 07:58:00,
2015-04-01 03:03:00,45.8,33.5,29.82,SE,135,0.0,0.0,62,0.00,,,0.00,WUHU216HW,2015-04-01 08:03:00,
2015-04-01 03:08:00,46.0,33.7,29.82,SSE,158,0.0,0.0,62,0.00,,,0.00,WUHU216HW,2015-04-01 08:08:00,
2015-04-01 03:13:00,46.2,33.8,29.82,ESE,113,0.0,0.0,62,0.00,,,0.00,WUHU216HW,2015-04-01 08:13:00,
2015-04-01 03:18:00,46.5,34.2,29.82,ESE,113,0.0,0.0,62,0.00,,,0.00,WUHU216HW,2015-04-01 08:18:00,
2015-04-01 03:23:00,46.7,34.3,29.81,SE,135,0.0,0.0,62,0.00,,,0.00,WUHU216HW,2015-04-01 08:23:00,
2015-04-01 03:28:00,47.1,34.7,29.81,ESE,113,0.0,0.0,62,0.00,,,0.00,WUHU216HW,2015-04-01 08:28:00,
2015-04-01 03:33:00,47.3,34.5,29.81,SE,135,0.0,0.0,61,0.00,,,0.00,WUHU216HW,2015-04-01 08:33:00,
2015-04-01 03:37:00,47.4,34.7,29.80,ESE,113,0.0,0.0,61,0.00,,,0.00,WUHU216HW,2015-04-01 08:37:00,
2015-04-01 03:42:00,47.3,34.5,29.80,SE,135,0.0,0.0,61,0.00,,,0.00,WUHU216HW,2015-04-01 08:42:00,
2015-04-01 03:47:00,47.1,34.3,29.80,SE,135,0.0,0.0,61,0.00,,,0.00,WUHU216HW,2015-04-01 08:47:00,
2015-04-01 03:52:00,47.1,34.3,29.79,SSE,158,0.0,0.0,61,0.00,,,0.00,WUHU216HW,2015-04-01 08:52:00,
2015-04-01 03:57:00,47.1,34.3,29.79,ESE,113,0.0,0.0,61,0.00,,,0.00,WUHU216HW,2015-04-01 08:57:00,
2015-04-01 04:02:00,47.1,34.7,29.79,SE,135,0.0,0.0,62,0.00,,,0.00,WUHU216HW,2015-04-01 09:02:00,
2015-04-01 04:07:00,46.9,34.5,29.79,SE,135,0.0,0.0,62,0.00,,,0.00,WUHU216HW,2015-04-01 09:07:00,
2015-04-01 04:12:00,46.7,34.3,29.79,SE,135,0.0,0.0,62,0.00,,,0.00,WUHU216HW,2015-04-01 09:12:00,
2015-04-01 04:17:00,46.7,34.3,29.79,SE,135,0.0,0.0,62,0.00,,,0.00,WUHU216HW,2015-04-01 09:17:00,
2015-04-01 04:22:00,46.9,34.5,29.79,ESE,113,0.0,0.0,62,0.00,,,0.00,WUHU216HW,2015-04-01 09:22:00,
2015-04-01 04:27:00,46.9,34.5,29.79,SE,135,0.0,0.0,62,0.00,,,0.00,WUHU216HW,2015-04-01 09:27:00,
2015-04-01 04:32:00,47.1,34.7,29.78,SE,135,0.0,0.0,62,0.00,,,0.00,WUHU216HW,2015-04-01 09:32:00,
2015-04-01 04:37:00,47.1,34.7,29.78,SSE,158,0.0,0.0,62,0.00,,,0.00,WUHU216HW,2015-04-01 09:37:00,
2015-04-01 04:42:00,46.9,34.9,29.78,SE,135,0.0,0.0,63,0.00,,,0.00,WUHU216HW,2015-04-01 09:42:00,
2015-04-01 04:47:00,46.9,34.9,29.78,SE,135,0.0,0.0,63,0.00,,,0.00,WUHU216HW,2015-04-01 09:47:00,
2015-04-01 04:52:00,47.1,35.1,29.78,ESE,113,0.0,0.0,63,0.00,,,0.00,WUHU216HW,2015-04-01 09:52:00,
2015-04-01 04:57:00,47.3,35.3,29.78,SE,135,0.0,0.0,63,0.00,,,0.00,WUHU216HW,2015-04-01 09:57:00,
2015-04-01 05:02:00,47.3,35.3,29.78,SE,135,0.0,0.0,63,0.00,,,0.00,WUHU216HW,2015-04-01 10:02:00,
2015-04-01 05:07:00,47.4,35.4,29.78,SSE,158,0.0,0.0,63,0.00,,,0.00,WUHU216HW,2015-04-01 10:07:00,
2015-04-01 05:12:00,47.4,35.4,29.78,SE,135,0.0,0.0,63,0.00,,,0.00,WUHU216HW,2015-04-01 10:12:00,
2015-04-01 05:17:00,47.4,35.4,29.77,SSE,158,0.0,0.0,63,0.00,,,0.00,WUHU216HW,2015-04-01 10:17:00,
2015-04-01 05:22:00,47.4,35.4,29.77,SSE,158,0.0,0.0,63,0.00,,,0.00,WUHU216HW,2015-04-01 10:22:00,
2015-04-01 05:27:00,47.3,35.3,29.77,SE,135,0.0,0.0,63,0.00,,,0.00,WUHU216HW,2015-04-01 10:27:00,
2015-04-01 05:32:00,47.1,35.1,29.77,SE,135,0.0,0.0,63,0.00,,,0.00,WUHU216HW,2015-04-01 10:32:00,
2015-04-01 05:37:00,47.1,35.1,29.77,SSE,158,0.0,0.0,63,0.00,,,0.00,WUHU216HW,2015-04-01 10:37:00,
2015-04-01 05:42:00,46.9,34.9,29.77,ESE,113,0.0,0.0,63,0.00,,,0.00,WUHU216HW,2015-04-01 10:42:00,
2015-04-01 05:47:00,46.5,35.0,29.77,ESE,113,0.0,0.0,64,0.00,,,0.00,WUHU216HW,2015-04-01 10:47:00,
2015-04-01 05:52:00,46.5,35.0,29.77,SE,135,0.0,0.0,64,0.00,,,0.00,WUHU216HW,2015-04-01 10:52:00,
2015-04-01 05:57:00,46.2,35.0,29.77,SE,135,0.0,0.0,65,0.00,,,0.00,WUHU216HW,2015-04-01 10:57:00,
2015-04-01 06:02:00,46.0,35.0,29.77,SE,135,0.0,0.0,65,0.00,,,0.00,WUHU216HW,2015-04-01 11:02:00,
2015-04-01 06:07:00,46.0,34.8,29.76,SE,135,0.0,0.0,65,0.00,,,0.00,WUHU216HW,2015-04-01 11:07:00,
2015-04-01 06:12:00,46.0,34.8,29.77,SE,135,0.0,0.0,65,0.00,,,0.00,WUHU216HW,2015-04-01 11:12:00,
2015-04-01 06:17:00,45.6,34.5,29.77,SE,135,0.0,0.0,65,0.00,,,0.00,WUHU216HW,2015-04-01 11:17:00,
2015-04-01 06:22:00,45.6,34.9,29.76,SE,135,0.0,0.0,66,0.00,,,0.00,WUHU216HW,2015-04-01 11:22:00,
2015-04-01 06:27:00,45.8,34.7,29.76,SE,135,0.0,0.0,65,0.00,,,0.00,WUHU216HW,2015-04-01 11:27:00,
2015-04-01 06:32:00,46.0,34.8,29.76,SSE,158,0.0,0.0,65,0.00,,,0.00,WUHU216HW,2015-04-01 11:32:00,
2015-04-01 06:37:00,46.0,34.8,29.76,ESE,113,0.0,0.0,65,0.00,,,0.00,WUHU216HW,2015-04-01 11:37:00,
2015-04-01 06:42:00,46.0,34.8,29.76,SE,135,0.0,0.0,65,0.00,,,0.00,WUHU216HW,2015-04-01 11:42:00,
2015-04-01 06:47:00,46.2,35.0,29.76,SSE,158,0.0,0.0,65,0.00,,,0.00,WUHU216HW,2015-04-01 11:47:00,
2015-04-01 06:52:00,46.2,35.0,29.76,SE,135,0.0,0.0,65,0.00,,,0.00,WUHU216HW,2015-04-01 11:52:00,
2015-04-01 06:57:00,46.2,35.0,29.76,ESE,113,0.0,0.0,65,0.00,,,0.00,WUHU216HW,2015-04-01 11:57:00,
2015-04-01 07:02:00,46.2,35.0,29.76,SE,135,0.0,0.0,65,0.00,,,0.00,WUHU216HW,2015-04-01 12:02:00,
2015-04-01 07:07:00,46.5,35.4,29.76,SE,135,0.0,0.0,65,0.00,,,0.00,WUHU216HW,2015-04-01 12:07:00,
2015-04-01 07:12:00,46.5,35.4,29.76,SE,135,0.0,0.0,65,0.00,,,0.00,WUHU216HW,2015-04-01 12:12:00,
2015-04-01 07:17:00,47.1,35.5,29.76,SSE,158,0.0,0.0,64,0.00,,,0.00,WUHU216HW,2015-04-01 12:17:00,
2015-04-01 07:22:00,47.4,35.8,29.76,SSE,158,0.0,0.0,64,0.00,,,0.00,WUHU216HW,2015-04-01 12:22:00,
2015-04-01 07:27:00,47.8,35.8,29.77,SSE,158,0.0,0.0,63,0.00,,,0.00,WUHU216HW,2015-04-01 12:27:00,
2015-04-01 07:32:00,48.3,36.3,29.76,SE,135,0.0,0.0,63,0.00,,,0.00,WUHU216HW,2015-04-01 12:32:00,
2015-04-01 07:37:00,48.5,36.5,29.76,SE,135,0.0,0.0,63,0.00,,,0.00,WUHU216HW,2015-04-01 12:37:00,
2015-04-01 07:42:00,48.9,36.4,29.76,SE,135,0.0,0.0,62,0.00,,,0.00,WUHU216HW,2015-04-01 12:42:00,
2015-04-01 07:47:00,49.8,37.2,29.76,SSE,158,0.0,0.0,62,0.00,,,0.00,WUHU216HW,2015-04-01 12:47:00,
2015-04-01 07:52:00,50.7,37.7,29.76,South,180,0.0,0.0,61,0.00,,,0.00,WUHU216HW,2015-04-01 12:52:00,
2015-04-01 07:57:00,51.4,37.9,29.76,SSE,158,0.0,0.0,60,0.00,,,0.00,WUHU216HW,2015-04-01 12:57:00,
2015-04-01 08:02:00,51.6,37.6,29.76,SE,135,0.0,0.0,60,0.00,,,0.00,WUHU216HW,2015-04-01 13:02:00,
2015-04-01 08:07:00,52.1,38.1,29.76,SE,135,0.0,0.0,59,0.00,,,0.00,WUHU216HW,2015-04-01 13:07:00,
2015-04-01 08:12:00,52.5,38.1,29.76,SSE,158,0.0,0.0,58,0.00,,,0.00,WUHU216HW,2015-04-01 13:12:00,
2015-04-01 08:17:00,53.4,38.9,29.76,SSE,158,0.0,0.0,58,0.00,,,0.00,WUHU216HW,2015-04-01 13:17:00,
2015-04-01 08:22:00,53.7,38.8,29.76,SSE,158,0.0,0.0,57,0.00,,,0.00,WUHU216HW,2015-04-01 13:22:00,
2015-04-01 08:27:00,54.3,39.3,29.76,SE,135,0.0,0.0,57,0.00,,,0.00,WUHU216HW,2015-04-01 13:27:00,
2015-04-01 08:32:00,55.2,39.6,29.75,South,180,0.0,0.0,56,0.00,,,0.00,WUHU216HW,2015-04-01 13:32:00,
2015-04-01 08:37:00,55.9,39.9,29.75,SSE,158,0.0,0.0,55,0.00,,,0.00,WUHU216HW,2015-04-01 13:37:00,
2015-04-01 08:42:00,56.4,39.9,29.75,SE,135,0.0,0.0,54,0.00,,,0.00,WUHU216HW,2015-04-01 13:42:00,
2015-04-01 08:47:00,56.3,39.3,29.75,South,180,0.0,0.0,53,0.00,,,0.00,WUHU216HW,2015-04-01 13:47:00,
2015-04-01 08:52:00,55.9,38.5,29.74,SSE,158,0.0,0.0,52,0.00,,,0.00,WUHU216HW,2015-04-01 13:52:00,
2015-04-01 08:57:00,55.5,38.6,29.74,South,180,0.0,0.0,53,0.00,,,0.00,WUHU216HW,2015-04-01 13:57:00,
2015-04-01 09:02:00,56.3,39.3,29.74,SE,135,0.0,0.0,53,0.00,,,0.00,WUHU216HW,2015-04-01 14:02:00,
2015-04-01 09:07:00,57.2,40.2,29.73,SE,135,0.0,0.0,53,0.00,,,0.00,WUHU216HW,2015-04-01 14:07:00,
2015-04-01 09:12:00,57.9,40.4,29.73,SSE,158,0.0,0.0,52,0.00,,,0.00,WUHU216HW,2015-04-01 14:12:00,
2015-04-01 09:17:00,58.8,40.7,29.73,South,180,0.0,0.0,51,0.00,,,0.00,WUHU216HW,2015-04-01 14:17:00,
2015-04-01 09:22:00,59.7,41.5,29.73,South,180,0.0,0.0,51,0.00,,,0.00,WUHU216HW,2015-04-01 14:22:00,
2015-04-01 09:27:00,60.0,40.8,29.73,South,180,0.0,0.0,49,0.00,,,0.00,WUHU216HW,2015-04-01 14:27:00,
2015-04-01 09:32:00,59.7,40.5,29.72,South,180,0.0,0.0,49,0.00,,,0.00,WUHU216HW,2015-04-01 14:32:00,
2015-04-01 09:37:00,59.7,40.5,29.72,SE,135,0.0,0.0,49,0.00,,,0.00,WUHU216HW,2015-04-01 14:37:00,
2015-04-01 09:42:00,59.9,40.6,29.72,SSW,203,0.0,0.0,49,0.00,,,0.00,WUHU216HW,2015-04-01 14:42:00,
2015-04-01 09:47:00,60.9,41.0,29.72,SSW,203,0.0,0.0,48,0.00,,,0.00,WUHU216HW,2015-04-01 14:47:00,
2015-04-01 09:52:00,61.1,41.2,29.71,South,180,0.0,0.0,48,0.00,,,0.00,WUHU216HW,2015-04-01 14:52:00,
2015-04-01 09:57:00,61.3,41.4,29.70,South,180,0.0,0.0,48,0.00,,,0.00,WUHU216HW,2015-04-01 14:57:00,
2015-04-01 10:01:00,62.2,41.6,29.71,SSW,203,0.0,0.0,47,0.00,,,0.00,WUHU216HW,2015-04-01 15:01:00,
2015-04-01 10:06:00,62.4,41.8,29.70,SSE,158,0.0,0.0,47,0.00,,,0.00,WUHU216HW,2015-04-01 15:06:00,
2015-04-01 10:11:00,63.1,42.4,29.70,South,180,0.0,0.0,47,0.00,,,0.00,WUHU216HW,2015-04-01 15:11:00,
2015-04-01 10:16:00,64.2,42.8,29.70,South,180,0.0,0.0,46,0.00,,,0.00,WUHU216HW,2015-04-01 15:16:00,
2015-04-01 10:21:00,64.9,42.9,29.70,South,180,0.0,0.0,45,0.00,,,0.00,WUHU216HW,2015-04-01 15:21:00,
2015-04-01 10:26:00,65.1,42.5,29.70,SSW,203,0.0,0.0,44,0.00,,,0.00,WUHU216HW,2015-04-01 15:26:00,
2015-04-01 10:31:00,65.6,43.0,29.70,SSW,203,0.0,0.0,44,0.00,,,0.00,WUHU216HW,2015-04-01 15:31:00,
2015-04-01 10:36:00,65.8,43.2,29.70,SSE,158,0.0,0.0,44,0.00,,,0.00,WUHU216HW,2015-04-01 15:36:00,
2015-04-01 10:41:00,65.8,43.2,29.70,SSE,158,0.0,0.0,44,0.00,,,0.00,WUHU216HW,2015-04-01 15:41:00,
2015-04-01 10:46:00,66.5,43.2,29.70,SSW,203,0.0,0.0,43,0.00,,,0.00,WUHU216HW,2015-04-01 15:46:00,
2015-04-01 10:51:00,67.1,43.1,29.69,SSW,203,0.0,0.0,42,0.00,,,0.00,WUHU216HW,2015-04-01 15:51:00,
2015-04-01 10:56:00,67.8,43.8,29.69,SSE,158,0.0,0.0,42,0.00,,,0.00,WUHU216HW,2015-04-01 15:56:00,
2015-04-01 11:01:00,68.9,44.2,29.69,South,180,0.0,0.0,41,0.00,,,0.00,WUHU216HW,2015-04-01 16:01:00,
2015-04-01 11:06:00,69.4,44.0,29.69,SSW,203,0.0,0.0,40,0.00,,,0.00,WUHU216HW,2015-04-01 16:06:00,
2015-04-01 11:11:00,69.4,44.0,29.68,South,180,0.0,0.0,40,0.00,,,0.00,WUHU216HW,2015-04-01 16:11:00,
2015-04-01 11:16:00,69.9,44.5,29.69,SSE,158,0.0,0.0,40,0.00,,,0.00,WUHU216HW,2015-04-01 16:16:00,
2015-04-01 11:21:00,70.1,44.0,29.68,SE,135,0.0,0.0,39,0.00,,,0.00,WUHU216HW,2015-04-01 16:21:00,
2015-04-01 11:26:00,70.3,44.9,29.68,South,180,0.0,0.0,40,0.00,,,0.00,WUHU216HW,2015-04-01 16:26:00,
2015-04-01 11:31:00,70.7,45.2,29.68,SSW,203,0.0,0.0,40,0.00,,,0.00,WUHU216HW,2015-04-01 16:31:00,
2015-04-01 11:36:00,71.2,44.9,29.68,South,180,0.0,0.0,39,0.00,,,0.00,WUHU216HW,2015-04-01 16:36:00,
2015-04-01 11:41:00,71.6,45.3,29.68,SSW,203,0.0,0.0,39,0.00,,,0.00,WUHU216HW,2015-04-01 16:41:00,
2015-04-01 11:46:00,72.5,46.0,29.68,SSE,158,0.0,0.0,39,0.00,,,0.00,WUHU216HW,2015-04-01 16:46:00,
2015-04-01 11:51:00,73.0,45.8,29.68,SSW,203,0.0,0.0,38,0.00,,,0.00,WUHU216HW,2015-04-01 16:51:00,
2015-04-01 11:56:00,73.4,46.1,29.67,SSW,203,0.0,0.0,38,0.00,,,0.00,WUHU216HW,2015-04-01 16:56:00,
2015-04-01 12:01:00,74.1,43.7,29.67,South,180,0.0,0.0,34,0.00,,,0.00,WUHU216HW,2015-04-01 17:01:00,
2015-04-01 12:06:00,74.1,44.5,29.67,SW,225,0.0,0.0,35,0.00,,,0.00,WUHU216HW,2015-04-01 17:06:00,
2015-04-01 12:11:00,73.9,45.1,29.66,SSW,203,0.0,0.0,36,0.00,,,0.00,WUHU216HW,2015-04-01 17:11:00,
2015-04-01 12:16:00,74.4,44.0,29.66,SSE,158,0.0,0.0,34,0.00,,,0.00,WUHU216HW,2015-04-01 17:16:00,
2015-04-01 12:21:00,74.8,45.9,29.65,South,180,0.0,0.0,36,0.00,,,0.00,WUHU216HW,2015-04-01 17:21:00,
2015-04-01 12:26:00,75.0,45.3,29.66,South,180,0.0,0.0,35,0.00,,,0.00,WUHU216HW,2015-04-01 17:26:00,
2015-04-01 12:31:00,75.5,45.0,29.65,South,180,0.0,0.0,34,0.00,,,0.00,WUHU216HW,2015-04-01 17:31:00,
2015-04-01 12:36:00,75.9,45.3,29.65,SSE,158,0.0,0.0,34,0.00,,,0.00,WUHU216HW,2015-04-01 17:36:00,
2015-04-01 12:41:00,75.9,44.6,29.65,SSE,158,0.0,0.0,33,0.00,,,0.00,WUHU216HW,2015-04-01 17:41:00,
2015-04-01 12:46:00,76.1,44.7,29.64,SSE,158,0.0,0.0,33,0.00,,,0.00,WUHU216HW,2015-04-01 17:46:00,
2015-04-01 12:51:00,76.4,45.1,29.64,South,180,0.0,0.0,33,0.00,,,0.00,WUHU216HW,2015-04-01 17:51:00,
2015-04-01 12:56:00,76.8,44.6,29.64,WSW,248,0.0,0.0,32,0.00,,,0.00,WUHU216HW,2015-04-01 17:56:00,
2015-04-01 13:01:00,77.3,45.8,29.64,South,180,0.0,0.0,33,0.00,,,0.00,WUHU216HW,2015-04-01 18:01:00,
2015-04-01 13:06:00,77.9,46.3,29.64,SSE,158,0.0,0.0,33,0.00,,,0.00,WUHU216HW,2015-04-01 18:06:00,
2015-04-01 13:11:00,78.0,45.7,29.63,South,180,0.0,0.0,32,0.00,,,0.00,WUHU216HW,2015-04-01 18:11:00,
2015-04-01 13:16:00,78.4,46.0,29.64,SSE,158,0.0,0.0,32,0.00,,,0.00,WUHU216HW,2015-04-01 18:16:00,
2015-04-01 13:21:00,78.6,45.3,29.64,SSE,158,0.0,0.0,31,0.00,,,0.00,WUHU216HW,2015-04-01 18:21:00,
2015-04-01 13:26:00,78.9,44.9,29.62,SSE,158,0.0,0.0,30,0.00,,,0.00,WUHU216HW,2015-04-01 18:26:00,
2015-04-01 13:31:00,78.9,45.7,29.62,SSE,158,0.0,0.0,31,0.00,,,0.00,WUHU216HW,2015-04-01 18:31:00,
2015-04-01 13:36:00,79.1,45.1,29.63,South,180,0.0,0.0,30,0.00,,,0.00,WUHU216HW,2015-04-01 18:36:00,
2015-04-01 13:41:00,79.1,45.1,29.61,SSE,158,0.0,0.0,30,0.00,,,0.00,WUHU216HW,2015-04-01 18:41:00,
2015-04-01 13:46:00,79.3,45.2,29.62,South,180,0.0,0.0,30,0.00,,,0.00,WUHU216HW,2015-04-01 18:46:00,
2015-04-01 13:51:00,79.5,45.4,29.61,SSE,158,0.0,0.0,30,0.00,,,0.00,WUHU216HW,2015-04-01 18:51:00,
2015-04-01 13:56:00,79.5,45.4,29.61,South,180,0.0,0.0,30,0.00,,,0.00,WUHU216HW,2015-04-01 18:56:00,
2015-04-01 14:01:00,79.7,45.5,29.61,SSW,203,0.0,0.0,30,0.00,,,0.00,WUHU216HW,2015-04-01 19:01:00,
2015-04-01 14:06:00,79.7,45.5,29.60,South,180,0.0,0.0,30,0.00,,,0.00,WUHU216HW,2015-04-01 19:06:00,
2015-04-01 14:11:00,79.8,45.7,29.60,SSW,203,0.0,0.0,30,0.00,,,0.00,WUHU216HW,2015-04-01 19:11:00,
2015-04-01 14:16:00,80.4,46.2,29.59,SSE,158,0.0,0.0,30,0.00,,,0.00,WUHU216HW,2015-04-01 19:16:00,
2015-04-01 14:21:00,80.9,44.6,29.60,South,180,0.0,0.0,28,0.00,,,0.00,WUHU216HW,2015-04-01 19:21:00,
2015-04-01 14:26:00,80.9,44.6,29.60,South,180,0.0,0.0,28,0.00,,,0.00,WUHU216HW,2015-04-01 19:26:00,
2015-04-01 14:31:00,80.7,44.4,29.58,SSW,203,0.0,0.0,28,0.00,,,0.00,WUHU216HW,2015-04-01 19:31:00,
2015-04-01 14:36:00,80.6,44.3,29.58,SW,225,0.0,0.0,28,0.00,,,0.00,WUHU216HW,2015-04-01 19:36:00,
2015-04-01 14:41:00,80.4,44.1,29.58,South,180,0.0,0.0,28,0.00,,,0.00,WUHU216HW,2015-04-01 19:41:00,
2015-04-01 14:46:00,80.7,44.4,29.58,SSW,203,0.0,0.0,28,0.00,,,0.00,WUHU216HW,2015-04-01 19:46:00,
2015-04-01 14:51:00,81.1,44.7,29.57,SSE,158,0.0,0.0,28,0.00,,,0.00,WUHU216HW,2015-04-01 19:51:00,
2015-04-01 14:56:00,81.1,44.7,29.58,SSE,158,0.0,0.0,28,0.00,,,0.00,WUHU216HW,2015-04-01 19:56:00,
2015-04-01 15:01:00,80.9,45.6,29.57,SSW,203,0.0,0.0,29,0.00,,,0.00,WUHU216HW,2015-04-01 20:01:00,
2015-04-01 15:06:00,80.9,44.6,29.56,SSE,158,0.0,0.0,28,0.00,,,0.00,WUHU216HW,2015-04-01 20:06:00,
2015-04-01 15:11:00,80.4,44.1,29.56,SE,135,0.0,0.0,28,0.00,,,0.00,WUHU216HW,2015-04-01 20:11:00,
2015-04-01 15:16:00,80.2,45.0,29.55,South,180,0.0,0.0,29,0.00,,,0.00,WUHU216HW,2015-04-01 20:16:00,
2015-04-01 15:21:00,80.4,45.1,29.55,South,180,0.0,0.0,29,0.00,,,0.00,WUHU216HW,2015-04-01 20:21:00,
2015-04-01 15:26:00,80.4,44.1,29.56,SW,225,0.0,0.0,28,0.00,,,0.00,WUHU216HW,2015-04-01 20:26:00,
2015-04-01 15:31:00,80.6,44.3,29.54,South,180,0.0,0.0,28,0.00,,,0.00,WUHU216HW,2015-04-01 20:31:00,
2015-04-01 15:36:00,80.7,45.5,29.54,SE,135,0.0,0.0,29,0.00,,,0.00,WUHU216HW,2015-04-01 20:36:00,
2015-04-01 15:41:00,80.7,44.4,29.53,South,180,0.0,0.0,28,0.00,,,0.00,WUHU216HW,2015-04-01 20:41:00,
2015-04-01 15:46:00,80.7,44.4,29.53,SSE,158,0.0,0.0,28,0.00,,,0.00,WUHU216HW,2015-04-01 20:46:00,
2015-04-01 15:51:00,80.7,44.4,29.53,South,180,0.0,0.0,28,0.00,,,0.00,WUHU216HW,2015-04-01 20:51:00,
2015-04-01 15:56:00,80.7,44.4,29.53,SSE,158,0.0,0.0,28,0.00,,,0.00,WUHU216HW,2015-04-01 20:56:00,
2015-04-01 16:01:00,80.7,44.4,29.52,SSW,203,0.0,0.0,28,0.00,,,0.00,WUHU216HW,2015-04-01 21:01:00,
2015-04-01 16:06:00,80.7,44.4,29.52,SSE,158,0.0,0.0,28,0.00,,,0.00,WUHU216HW,2015-04-01 21:06:00,
2015-04-01 16:11:00,80.7,44.4,29.52,South,180,0.0,0.0,28,0.00,,,0.00,WUHU216HW,2015-04-01 21:11:00,
2015-04-01 16:16:00,80.7,44.4,29.52,SSE,158,0.0,0.0,28,0.00,,,0.00,WUHU216HW,2015-04-01 21:16:00,
2015-04-01 16:21:00,80.7,44.4,29.52,SSE,158,0.0,0.0,28,0.00,,,0.00,WUHU216HW,2015-04-01 21:21:00,
2015-04-01 16:26:00,80.7,44.4,29.52,South,180,0.0,0.0,28,0.00,,,0.00,WUHU216HW,2015-04-01 21:26:00,
2015-04-01 16:31:00,80.7,44.4,29.52,SSE,158,0.0,0.0,28,0.00,,,0.00,WUHU216HW,2015-04-01 21:31:00,
2015-04-01 16:36:00,80.7,44.4,29.51,South,180,0.0,0.0,28,0.00,,,0.00,WUHU216HW,2015-04-01 21:36:00,
2015-04-01 16:41:00,80.6,44.3,29.51,SW,225,0.0,0.0,28,0.00,,,0.00,WUHU216HW,2015-04-01 21:41:00,
2015-04-01 16:46:00,80.4,44.1,29.51,South,180,0.0,0.0,28,0.00,,,0.00,WUHU216HW,2015-04-01 21:46:00,
2015-04-01 16:51:00,80.4,44.1,29.51,SSW,203,0.0,0.0,28,0.00,,,0.00,WUHU216HW,2015-04-01 21:51:00,
2015-04-01 16:56:00,80.4,44.1,29.51,South,180,0.0,0.0,28,0.00,,,0.00,WUHU216HW,2015-04-01 21:56:00,